Location: Musselshell
(46.5176°N, 108.0911°W)
Time: 21:41:32
(UTC+00:00)

PicSat - Pass Details

Date: 28 June 2022
Orbit: 446 x 455 km, 97.4° (Epoch: 13 August)

Event Time Altitude Azimuth Distance (km) Brightness Sun altitude
Exits shadow 04:06:56 - 99° (E) 1,941 ? -8.2°
Maximum altitude 04:09:29 10° 61° (ENE) 1,587 ? -8.5°
Drops below altitude 10° 04:10:06 10° 51° (NE) 1,613 ? -8.6°
Sets 04:13:48 0° 9° (N) 2,501 ? -9.0°
